Member area
Imprimable
Wissant, 07-08/09/2019, FRA - Trail de la Côte d'Opale
List of reports > 62km - Result
Search: Page: [1]
132 Entries
 
Complains are not accepted anymore. Results are final.
PlaceNrLicenceNameAgeNATTeamTimeTkmMoy.ScrCity
1.837218893LEJEUNE Frédéric54FRAUA VERSAILLES5:18:075:08 11.6911
2.422305860MEURILLON Hervé55FRAARTOIS ATHLÉTISME5:30:345:20 11.2522
3.497KUSCHNICK Philippe50FRA5:33:545:24 11.1425
4.5061608126FOURNIS Pascal53FRAARTOIS ATHLETISME6:11:006:00 10.0365
5.170ROCOURT Christophe54FRA6:17:346:06 9.8575
6.18203399FLAMENT Christophe57FRABERCK ATHLÉTISME CÔTE D'O6:27:056:15 9.6195
7.657453821GOURNAY Laurent53FRAELAN596:27:166:15 9.6196
8.275441016PICOT Antoine56FRAACVA6:28:096:16 9.5898
9.563DESCAMPS Maurice53FRAOISANS6:31:166:19 9.51104
10.820LEFEVRE Freddy55FRA6:32:316:20 9.48106
11.676SIMAR Marc50BELMSI6:35:016:23 9.42110
12.360LASTECOUERES Stephane54FRAPIRANHAS6:39:526:27 9.30124
13.5961654033NARDIN Jean-Louis59FRAJEAN-LOUIS NARDIN6:42:376:30 9.24131
14.168ROCOURT Eric55FRA6:47:566:35 9.12147
15.594CORBARIEU Thierry50FRAERREA6:50:366:38 9.06156
16.2241053120DESTENAY Philippe59FRAUSVALENCIENNES6:51:066:38 9.05160
17.261DEPRIESTER Philippe55FRA6:51:076:38 9.05161
18.5731913695CHAUVET Olivier52FRAS/L EA DU PLATEAU EST6:55:216:42 8.96173
19.8131448669MENUGE Laurent51FRATOUQUET TRAIL NATURE6:56:546:44 8.92177
20.285ANDALO Philippe52FRACOURIR AU MONT DES CATS7:00:356:48 8.85199
21.773123058LECLERCQ Franck53FRALMA7:00:466:48 8.84201
22.361GRESSIER Olivier51FRA7:02:426:50 8.80211
23.398GOSLIN Frédéric51FRASCA TRIATHLON ABBEVILLE7:03:066:50 8.79214
24.6951881836SEGUINAUD Pascal50FRASURESNES PASSION ATHLÉ MA7:03:296:50 8.78218
25.260DELENCLOS Philippe53FRASC ABBEVILLE TRIATHLON7:06:326:53 8.72226
26.229LEFEBVRE Nicolas54BELRUNNING CLUB TEMPLEUVE7:06:476:54 8.72227
27.195SBIK Larbi52FRA7:09:556:57 8.65238
28.66BOUCAU William55BEL7:10:406:57 8.64246
29.341WOZNIAK André57FRA7:11:136:58 8.63248
30.2651117578GUYON Franck50FRAMONTDIDIER ATHLETIX7:13:027:00 8.59252
31.355419856RIMBAUD Michel55FRAEACPA7:13:057:00 8.59253
32.4801966889FINOCCHIARO Daniel56FRAUS AIGREFEUILLE ATHLÉTISM7:17:207:04 8.51267
33.694MALFONDET Alain54FRA7:17:207:04 8.51268
34.222KHOUJA Riadh53TUNJOGGERS CLUB NABEUL7:19:577:06 8.46276
35.622HALLAF François54FRA7:21:277:08 8.43285
36.653RICHARD Gerald51FRAGERALD RICHARD7:23:017:09 8.40290
37.797JELONEK Jean-Luc50FRA7:26:197:12 8.34301
38.822SCHELKENS August57BELNO7:29:427:16 8.27309
39.808GRATEPANCHE Christian51FRACOURIR À BAISSIEUX7:31:227:17 8.24313
40.5411855618PICQUOT Eric59FRAAS MEUDON7:31:397:18 8.24314
41.565LEVIELLE Stephane50FRATOUS ENSEMBLE POUR CHLOE7:31:407:18 8.24315
42.798741824MIOT Franck50FRAACT7:33:147:19 8.21325
43.343BOUCHER Jean-Paul56FRAACP BRETEUIL7:33:207:19 8.21326
44.325DEFOSSEZ Christophe52FRA7:33:207:19 8.21327
45.191GALLORINI Stephane53FRA7:33:367:19 8.20330
46.587HAJDU Pascal54BELTEAM PAPA PAPOU7:36:287:22 8.15335
47.668GASNIER Christophe56FRAFLEURBAIX J'Y COURS7:39:037:25 8.10342
48.711BRUNQUET Eric59FRAFLEURBAIX J'Y COURS7:39:047:25 8.10343
49.655LEGAY Luc54FRA7:39:457:25 8.09345
50.527GUIRAO Christophe52FRA7:43:307:29 8.03358
51.362MAGRE Frederic53FRAPIRANHAS DE DIEPPE7:44:017:30 8.02360
52.716DELPORTE Thierry55FRA7:46:427:32 7.97370
53.331CARRÉE Daniel52FRA7:47:227:33 7.96372
54.106CWIKOWSKI Marc57BEL#NISMOBLACKLAB7:47:427:33 7.95375
55.659PROUST Michel52FRA7:49:317:35 7.92383
56.358HUET Pascal57FRA7:49:577:35 7.92387
57.159JOUMEL Stephane52FRA7:53:077:38 7.86394
58.461COCHEZ Olivier51FRA7:53:577:39 7.85397
59.8321099416BIGARD Benoit51FRAAMICALE VAL DE SOMME7:55:267:41 7.82402
60.228FONTAINE Thierry55BELRUNNING CLUB TEMPLEUVE7:55:407:41 7.82404
61.303MELLICK Jacques58FRA7:58:497:44 7.77412
62.89DEBARGE Bruno50FRAAMICALE SAPEURS-POMPIERS 8:02:207:47 7.71421
63.299HELDERLÉ Rodolphe50FRA8:03:527:49 7.69424
64.372TCHOKONTE Magloire53FRA8:04:057:49 7.68425
65.421NEVE Daniel59FRACOLGATE PALMOLIVE8:04:137:49 7.68426
66.380LANGLOIS Frederic50FRACLUB AC CAPELLOIS8:09:027:54 7.61436
67.397KRONUS Joel55FRAAC CAPELLOIS8:09:027:54 7.61437
68.509TONNERRE Gerard58FRABACO8:09:547:55 7.59444
69.287LEFEVRE Jean-Christophe52FRATFE ( TRAILERS FORET D'EU8:12:267:57 7.55451
70.3241791048SERBOURDIN Michael51FRALES GODASSES AMBAZACOISES8:13:287:58 7.54454
71.665VEILLE Frédéric52FRA8:13:417:58 7.54455
72.200GRACIN Philippe51FRAFOULEES ATHLETIQUES DE WA8:16:578:01 7.49462
73.197BELLATI Giorgio54FRAMACUMBA GO8:17:088:02 7.48465
74.337BONIFACE Christophe53FRA8:17:248:02 7.48466
75.158BEARD Thierry57FRAA HUM DE CALHAU8:17:598:02 7.47467
76.644T306075GASSER Paul54FRAKALENJI8:18:148:03 7.47469
77.800LESOIN Stephane55FRA8:18:158:03 7.47471
78.1161235896LAMBOTIN Pascal56FRAMONTDIDIER ATHLETIX8:18:428:03 7.46475
79.441CABAN Olivier53FRAVÉLIZY TRIATHLON8:19:098:04 7.45479
80.628COULOMBIER Stéphane52FRASTEPHANE COULOMBIER8:22:488:07 7.40486
81.627CREPIN Patrick50FRATEAM GROOT D'HAZEBROUCK8:22:488:07 7.40487
82.545DEGAND Patrice54FRAASC CAMIERS8:25:048:09 7.37491
83.365LERCH Eric59FRA8:25:538:10 7.35496
84.717CHARTIER Ludovic53FRARUNNERS DE BONDUES8:26:238:11 7.35499
85.39HOTAT Michel50BELJAMES8:27:028:11 7.34502
86.62LEFEBVRE Frederic55FRAFOULEES SAINGHINOISES8:27:268:12 7.33503
87.214DESCAMPS Olivier59FRAFOULEES SAINGHINOISES8:27:268:12 7.33504
88.127DEVASSINE Patrick52FRA8:27:298:12 7.33506
89.713LEPLUS Dominique57FRASTEENWERCK EN SHORT8:31:128:15 7.28517
90.552AUTIÉ Noël55FRA8:33:448:18 7.24523
91.487STRUYVEN Herve53FRAASLA 598:34:118:18 7.23524
92.94SCHOOFS Richard56BEL8:36:578:21 7.20527
93.61BRODEN Philippe52BELJC HSH8:39:018:23 7.17533
94.725GRIFFON Serge58FRA8:40:468:24 7.14535
95.804CASIER Didier56FRA8:41:088:25 7.14536
96.316CASSE Henri55BELRUNNING TEMPLEUVE8:41:418:25 7.13539
97.449IVEN Frank59ALLALAIN VINDAL8:43:168:27 7.11542
98.367SURMONT Bruno54FRACHESSY TRIATHLON VAL D'EU8:43:408:27 7.10545
99.569FOURNET Laurent55FRA8:43:418:27 7.10546
100.5001186429RAMONJEAN Marc58FRASEMEAC OLYMPIQUE8:45:458:29 7.08549
101.4991195535SISQUELLAS Serge57FRASÉMÉAC OLYMPIQUE8:45:458:29 7.08550
102.4371123960LEMAN Gerard57FRADREAM RUN ABBEVILLE8:48:598:32 7.03554
103.26QUEHEN Gilles54FRA8:50:388:34 7.01557
104.412GUILLEMONT Antoine54FRA8:51:258:35 7.00558
105.599CARIDROIT Frederic52FRA8:51:548:35 6.99559
106.583COCART Bruno50FRA8:54:008:37 6.97565
107.374HAMONIC Philippe54FRA8:57:268:41 6.92573
108.251DALLE Bertrand50FRA8:58:388:42 6.91574
109.387VANDER-BRIGGHE Jean-Guy51FRA8:58:458:42 6.90575
110.4671764149CABARET Franck50FRAUS AIGREFEUILLE ATHLETISM9:02:148:45 6.86580
111.58FAUCON Patrick57FRA9:07:178:50 6.80585
112.239SCHERPEREEL Alain53FRAFABTEAM9:09:428:52 6.77589
113.802278985GORLIER Romuald54FRACPBO9:10:348:53 6.76594
114.419VANDESOMPÈLE Laurent54FRA9:21:439:04 6.62607
115.656URBANIAK Freddy59FRA9:25:479:08 6.58610
116.651COUFFIGNAL Eric54FRAGLOBE RUNNERS9:29:039:11 6.54612
117.226DEVALERIOLA Patrick55BELSMAC/CAPTRAIL9:31:279:14 6.51614
118.828BEUN Yves-Michael51FRA9:37:489:20 6.44618
119.179LEBRUN Christophe57FRA9:38:439:21 6.43619
120.406LECLERCQ Nicolas53FRA9:44:489:26 6.36623
121.1431867237PAINDAVOINE Christian54FRAC-TRAIL CLUD9:48:029:30 6.33625
122.697HENROTTIN Pierre55BEL10:00:559:42 6.19631
DSQ1521235915BALESTAN Patrick54FRAMONTDIDIER ATHLETIX
DSQ7291801624BAUDEL Pierre58FRAVAFA
DSQ757DUFLOER Benoit50FRATEAM TRAIL GRAVELINES
DSQ6121608065LAURENT Olivier54FRADSL SAINT OUEN
DSQ157SAULIN Guillaume52FRA
DNF534BAILLIEUL Herve51FRA
DNF786FASQUEL Dominique50FRAAC LA CAPELLE
DNF640MORAND Christophe51FRATRAILERS DU MONT SOUFFLAR
DNF271507550TINCHON Didier54FRABACO
DNF204BRUYNEEL Alain56BEL1:15:08
DNF: did not finish; DSQ: disqualified; Speed in km/h
Page: [1]